Weather History for Ellington Field, TX

Change the Weather History Date:

Sunday, December 1, 2013

  Actual Average Record
Temperature  
Mean Temperature 62 °F -  
Max Temperature 73 °F 66 °F 82 °F (2012)
Min Temperature 51 °F 48 °F 33 °F (2006)
Degree Days  
Heating Degree Days 3    
Growing Degree Days 12 (Base 50)    
Moisture  
Dew Point 56 °F    
Average Humidity 82    
Maximum Humidity 100    
Minimum Humidity 60    
Precipitation  
Precipitation 0.00 in - - ()
Sea Level Pressure  
Sea Level Pressure 30.14 in    
Wind  
Wind Speed 3 mph (SE)    
Max Wind Speed 9 mph    
Max Gust Speed -    
Visibility 9 miles    
Events Fog    
Averages and records for this station are not official NWS values.
T = Trace of Precipitation, MM = Missing Value Source: NWS Daily Summary

Daily Weather History Graph

Daily Weather History Graph

Search for Another Location

Airport:

Trip Planner

Search our weather history database for the weather conditions in past years. The results will help you decide how hot, cold, wet, or windy it might be!

Date:

Astronomy

Dec. 01, 2013 Rise Set
Actual Time 6:58 AM CST 5:21 PM CST
Civil Twilight 6:32 AM CST 5:47 PM CST
Nautical Twilight 6:02 AM CST 6:16 PM CST
Astronomical Twilight 5:34 AM CST 6:45 PM CST
Moon 5:23 AM CST (12/1) 4:27 PM CST (12/1)
Length of Visible Light 11h 14m
Length of Day
10h 22m
Waning Crescent, 2% of the Moon is Illuminated
Dec 1
Waning Crescent
Dec 2
New
Dec 9
First Quarter
Dec 17
Full
Dec 25
Last Quarter

Hourly Weather History & Observations

Time (CST) Temp. Dew Point Humidity Pressure Visibility Wind Dir Wind Speed Gust Speed Precip Events Conditions
12:50 AM 53.6 °F 51.8 °F 94% 30.23 in 7.0 mi Calm Calm - N/A   Clear
1:50 AM 53.6 °F 50.0 °F 88% 30.22 in 7.0 mi Calm Calm - N/A Fog Patches of Fog
2:50 AM 53.6 °F 51.8 °F 94% 30.22 in 7.0 mi North 3.5 mph - N/A Fog Patches of Fog
3:50 AM 55.4 °F 55.4 °F 100% 30.21 in 7.0 mi Calm Calm - N/A   Mostly Cloudy
5:50 AM 53.6 °F 53.6 °F 100% 30.21 in 7.0 mi Calm Calm - N/A   Mostly Cloudy
6:50 AM 51.8 °F 51.8 °F 100% 30.22 in 7.0 mi Calm Calm - N/A   Mostly Cloudy
7:50 AM 53.6 °F 53.6 °F 100% 30.22 in 7.0 mi East 3.5 mph - N/A   Mostly Cloudy
8:50 AM 57.2 °F 55.4 °F 94% 30.22 in 7.0 mi East 3.5 mph - N/A   Mostly Cloudy
9:50 AM 60.8 °F 60.8 °F 100% 30.23 in 7.0 mi East 4.6 mph - N/A   Overcast
10:50 AM 62.6 °F 59.0 °F 88% 30.22 in 8.0 mi East 4.6 mph - N/A   Overcast
11:50 AM 68.0 °F 59.0 °F 73% 30.19 in 8.0 mi SE 4.6 mph - N/A   Mostly Cloudy
12:50 PM 71.6 °F 59.0 °F 64% 30.14 in 10.0 mi ESE 5.8 mph - N/A   Overcast
1:50 PM 71.6 °F 59.0 °F 64% 30.12 in 10.0 mi SE 5.8 mph - N/A   Overcast
2:50 PM 73.4 °F 59.0 °F 61% 30.09 in 10.0 mi SSE 6.9 mph - N/A   Mostly Cloudy
3:50 PM 71.6 °F 57.2 °F 60% 30.27 in 10.0 mi South 9.2 mph - N/A   Mostly Cloudy
4:50 PM 71.6 °F 57.2 °F 60% 30.06 in 10.0 mi SSE 5.8 mph - N/A   Mostly Cloudy
5:50 PM 66.2 °F 57.2 °F 73% 30.04 in 10.0 mi SSE 4.6 mph - N/A   Mostly Cloudy
6:50 PM 64.4 °F 55.4 °F 73% 30.03 in 10.0 mi SSE 5.8 mph - N/A   Scattered Clouds
7:50 PM 64.4 °F 55.4 °F 73% 30.03 in 10.0 mi South 5.8 mph - N/A   Scattered Clouds
8:50 PM 64.4 °F 55.4 °F 73% 30.03 in 10.0 mi South 5.8 mph - N/A   Mostly Cloudy
9:50 PM 62.6 °F 57.2 °F 82% 30.02 in 10.0 mi South 4.6 mph - N/A   Mostly Cloudy
10:50 PM 62.6 °F 57.2 °F 82% 30.00 in 10.0 mi South 4.6 mph - N/A   Mostly Cloudy
11:50 PM 62.6 °F 57.2 °F 82% 29.98 in 10.0 mi South 4.6 mph - N/A   Mostly Cloudy